User: anonymous   Login
Location: Caltech
(34.1382°N, 118.1253°W)
Time: 23:34:58
(UTC-07:00)
Language:

TMSAT-1 - Orbit

View from above orbital plane
View from above orbital plane
View from above satellite
View from above satellite

Ground track
Ground track

The orbit data is extracted from the following two-line orbital elements,

1 25396U 98043C   15180.83709735  .00000015  00000-0  24944-4 0  9999
2 25396 098.4909 133.8719 0001404 257.2242 133.5538 14.24326932881912
Epoch (UTC): 29 June 2015 20:05:25
Eccentricity: 0.0001404
inclination: 98.4909°
perigee height: 810 km
apogee height: 812 km
right ascension of ascending node: 133.8719°
argument of perigee: 257.2242°
revolutions per day: 14.24326932
mean anomaly at epoch: 133.5538°
orbit number at epoch: 88191

The dashed part of the orbit path shows where the satellite is in the earth's shadow,  

DLR